Terug naar catalogus

SL-14 R/B

ActiefPO
NORAD 16736·ROCKET BODY·🇷🇺 Russia

Gelanceerd May 27, 1986 vanaf Plesetsk Cosmodrome

Loading…

Volgende Passages (komende 24 uur)

TLE

VersSource: Space-Track

Epoch: Sep 14, 2026, 08:03 UTC

1 16736U 86039B   26257.33586049  .00000013  00000-0 -13193-5 0  9996
2 16736  82.5372 219.6732 0012428 340.8061  19.2629 13.84861303 36703

Volg SL-14 R/B in realtime met AllMySat

Download on the App Store